#timestamp,LO_Frequency,Hit 
1501599615.2,286046978.2,N
1501599635.1,286046978.2,N
1501599636.0,286046978.2,N
1501599655.8,286046979.9,N
1501599675.6,286046979.7,N
1501599695.4,286046981.9,N
1501599715.3,286046980.9,N
1501599735.1,286046983.2,N
1501599755.8,286046981.4,N
1501599775.7,286046982.9,N
1501599795.5,286046980.9,N
1501599815.3,286046980.7,N
1501599835.2,286046979.6,N
1501599855.9,286046978.9,N
1501599875.7,286046981.5,N
1501599895.6,286046981.6,N
1501599915.4,286046978.0,N
1501599935.2,286046975.9,N
1501599955.1,286046976.2,N
1501599956.0,286046976.2,N
1501599975.8,286046978.3,N
1501599995.6,286046980.4,N
1501600015.4,286046977.7,N
1501600035.3,286046977.8,N
1501600055.2,286046979.7,N
1501600075.1,286046979.3,N
1501600076.0,286046979.3,N
1501600095.8,286046982.0,N
1501600115.6,286046981.1,N
1501600135.5,286046981.5,N
1501600155.3,286046980.7,N
1501600175.1,286046981.4,N
1501600195.9,286046983.2,N
1501600215.7,286046983.1,N
1501600235.5,286046980.5,N
1501600255.4,286046981.6,N
1501600275.2,286046983.3,N
1501600295.0,286046982.8,N
1501600295.9,286046982.8,N
1501600315.8,286046981.4,N
1501600335.6,286046982.8,N
1501600355.4,286046983.0,N
1501600375.3,286046980.9,N
1501600395.1,286046979.1,N
1501600396.0,286046979.1,N
1501600415.8,286046983.0,N
1501600435.7,286046983.6,N
1501600455.5,286046982.7,N
1501600475.3,286046981.9,N
1501600495.1,286046981.5,N
1501600515.9,286046979.2,N
1501600535.7,286046979.0,N
1501600555.5,286046982.0,N
1501600575.4,286046980.8,N
1501600595.2,286046979.2,N
1501600615.0,286046980.4,N
1501600615.9,286046980.4,N
1501600635.8,286046981.5,N
1501600655.6,286046981.4,N
1501600675.4,286046983.2,N
1501600695.3,286046981.2,N
1501600715.1,286046983.6,N
1501600716.0,286046983.6,N
1501600735.8,286046983.0,N
1501600755.7,286046980.9,N
1501600775.5,286046980.9,N
1501600795.3,286046983.3,N
1501600815.2,286046983.6,N
1501600835.9,286046983.1,N
1501600855.7,286046983.6,N
1501600875.6,286046983.6,N
1501600895.4,286046982.1,N
1501600915.2,286046980.7,N
1501600935.0,286046983.3,N
1501600936.0,286046983.3,N
1501600955.8,286046983.5,N
1501600975.6,286046980.8,N
1501600995.4,286046981.2,N
1501601015.3,286046981.4,N
1501601035.1,286046981.4,N
1501601055.9,286046979.7,N
1501601075.7,286046980.4,N
1501601095.5,286046980.4,N
1501601115.3,286046977.5,N
1501601135.2,286046980.0,N
1501601155.0,286046979.8,N
1501601155.9,286046979.8,N
1501601175.7,286046979.7,N
1501601195.6,286046981.1,N
1501601215.4,286046980.6,N
1501601235.2,286046980.6,N
1501601255.1,286046981.2,N
1501601256.0,286046981.2,N
1501601275.8,286046981.8,N
1501601295.6,286046979.4,N
1501601315.5,286046980.0,N
1501601335.3,286046980.1,N
1501601355.1,286046980.2,N
1501601375.9,286046977.7,N
1501601395.7,286046978.1,N
1501601415.5,286046979.9,N
1501601435.3,286046980.4,N
1501601455.2,286046980.2,N
1501601475.0,286046979.9,N
1501601475.9,286046979.9,N
1501601495.8,286046979.2,N
1501601515.6,286046982.0,N
1501601535.4,286046979.3,N
1501601555.2,286046981.5,N
1501601575.1,286046981.1,N
1501601576.0,286046981.1,N
1501601595.8,286046980.2,N
1501601615.6,286046980.2,N
1501601635.5,286046977.7,N
1501601655.3,286046979.0,N
1501601675.1,286046979.0,N
1501601695.9,286046977.4,N
1501601715.7,286046978.5,N
1501601735.5,286046976.0,N
1501601755.4,286046977.2,N
1501601775.2,286046978.8,N
1501601795.0,286046976.7,N
1501601795.9,286046976.7,N
1501601815.8,286046978.0,N
1501601835.6,286046977.3,N
1501601855.4,286046977.9,N
1501601875.3,286046978.1,N
1501601895.1,286046980.0,N
1501601896.0,286046980.0,N
1501601915.8,286046979.7,N
1501601935.7,286046979.6,N
1501601955.5,286046980.0,N
1501601975.3,286046977.7,N
1501601995.2,286046978.5,N
1501602015.9,286046978.8,N
1501602035.7,286046980.0,N
1501602055.6,286046980.2,N
1501602075.4,286046980.1,N
1501602095.2,286046979.8,N
1501602115.0,286046979.5,N
1501602115.9,286046979.5,N
1501602135.8,286046982.0,N
1501602155.6,286046981.9,N
1501602175.4,286046979.3,N
1501602195.3,286046980.4,N
1501602215.1,286046980.1,N
1501602235.8,286046978.7,N
1501602255.7,286046978.4,N
1501602275.5,286046975.8,N
1501602295.3,286046976.4,N
1501602315.2,286046977.8,N
1501602335.9,286046977.3,N
1501602355.7,286046978.0,N
1501602375.6,286046977.4,N
1501602395.4,286046980.3,N
1501602415.2,286046977.3,N
1501602435.0,286046977.7,N
1501602435.9,286046977.7,N
1501602455.8,286046977.3,N
1501602475.6,286046979.8,N
1501602495.4,286046979.7,N
1501602515.3,286046980.3,N
1501602535.1,286046977.4,N
1501602555.8,286046980.2,N
1501602575.7,286046977.6,N
1501602595.5,286046975.8,N
1501602615.3,286046978.0,N
1501602635.2,286046980.0,N
1501602655.9,286046981.8,N
1501602675.7,286046981.8,N
1501602695.6,286046981.6,N
1501602715.4,286046979.0,N
1501602735.2,286046977.6,N
1501602755.1,286046977.5,N
1501602756.0,286046977.5,N
1501602775.8,286046976.5,N
1501602795.6,286046977.4,N
1501602815.5,286046977.4,N
1501602835.3,286046979.2,N
1501602855.1,286046980.3,N
1501602875.9,286046980.4,N
1501602895.7,286046981.6,N
1501602915.5,286046980.7,N
1501602935.3,286046981.4,N
1501602955.2,286046980.5,N
1501602975.0,286046979.3,N
1501602975.9,286046979.3,N
1501602995.7,286046979.8,N
1501603015.6,286046979.9,N
1501603035.4,286046979.5,N
1501603055.2,286046981.6,N
1501603075.1,286046979.9,N
1501603076.0,286046979.9,N
1501603095.8,286046980.1,N
1501603115.6,286046980.3,N
1501603135.5,286046979.4,N
1501603155.3,286046981.4,N
1501603175.1,286046981.4,N
1501603195.9,286046979.7,N
